Home   Weather   Casper   Past weeks
Flag for USA

Past Weather in Casper, Wyoming, USA — Yesterday and Last 2 Weeks

Now
34 °F

Passing clouds.


Feels Like: 28 °F
Forecast: 50 / 29 °F
Wind: 7 mph from West

Location: Natrona County International Airport

Current Time: Oct 21, 2019 at 7:25:02 pm

Latest Report: Oct 21, 2019 at 6:53 pm


Visibility: 10 mi

Pressure: 30.13 "Hg (24.78 "Hg at 1569m altitude)

Humidity: 73%

Dew Point: 26 °F

Location of CasperLocation

Past Weather in Casper — Graph

°F

Casper Temperature Yesterday

Maximum temperature yesterday: 40 °F (at 12:53 am)
Minimum temperature yesterday: 30 °F (at 5:00 am)
Average temperature yesterday: 33 °F

High & Low Weather Summary for the Past Weeks

 TemperatureHumidityPressure
High74 °F (Oct 16, 3:53 pm)100% (Oct 20, 10:53 am)30.43 "Hg (Oct 20, 10:53 am)
Low16 °F (Oct 10, 10:53 pm)9% (Oct 7, 4:53 pm)29.41 "Hg (Oct 17, 4:53 pm)
Average41 °F53%29.94 "Hg
* Reported Oct 6 5:53 pm — Oct 21 5:53 pm, Casper. Weather by CustomWeather, © 2019

Note: Actual official high and low records may vary slightly from our data, if they occured in-between our weather recording intervals... More about our weather records

Advertising

Casper Weather History for the Previous 24 Hours

Scroll right to see more
 ConditionsComfort  
Time TempWeatherWind HumidityBarometerVisibility
5:53 pm
Mon, Oct 21
39 °FOvercast.10 mph62%30.08 "Hg10 mi
4:53 pm42 °FSunny.16 mph51%30.06 "Hg10 mi
3:53 pm43 °FSunny.17 mph49%30.04 "Hg10 mi
2:53 pm40 °FPassing clouds.15 mph58%30.03 "Hg10 mi
1:53 pm39 °FOvercast.17 mph60%30.04 "Hg10 mi
12:53 pm39 °FMostly cloudy.15 mph57%30.06 "Hg10 mi
11:53 am36 °FBroken clouds.14 mph64%30.05 "Hg10 mi
10:53 am34 °FPartly sunny.9 mph70%30.04 "Hg10 mi
9:53 am32 °FScattered clouds.12 mph75%30.05 "Hg10 mi
8:53 am30 °FSunny.10 mph75%30.03 "Hg10 mi
7:53 am28 °FPartly sunny.3 mph81%30.02 "Hg10 mi
6:53 am30 °FOvercast.8 mph79%30.00 "Hg10 mi
5:53 am30 °FOvercast.9 mph82%29.98 "Hg10 mi
4:53 am29 °FOvercast.6 mph85%29.97 "Hg10 mi
3:53 am28 °FPassing clouds.7 mph78%29.97 "Hg10 mi
2:53 am29 °FOvercast.6 mph82%29.97 "Hg10 mi
1:53 am30 °FPassing clouds.10 mph82%29.97 "Hg10 mi
12:53 am27 °FClear.9 mph89%29.99 "Hg10 mi
11:53 pm
Sun, Oct 20
31 °FMostly cloudy.12 mph85%29.98 "Hg10 mi
10:53 pm31 °FOvercast.7 mph96%30.01 "Hg10 mi
9:53 pm31 °FPassing clouds.9 mph92%30.01 "Hg10 mi
9:29 pm32 °FMostly cloudy.8 mph92%29.96 "Hg10 mi
8:53 pm33 °FOvercast.3 mph88%30.01 "Hg10 mi
8:34 pm32 °FMostly cloudy.No wind96%29.97 "Hg10 mi
8:12 pm31 °FMostly cloudy.3 mph96%29.96 "Hg10 mi
7:53 pm31 °FOvercast.No wind96%30.01 "Hg10 mi
7:02 pm33 °FMostly cloudy.5 mph92%29.94 "Hg9 mi
Weather by CustomWeather, © 2019

See weather overview